Hourly Weather Roundup
Issued by NWS Central Illinois

Home | Current Version | Previous Version | Text Only | Print | Product List | Glossary On
Versions: 1 2 3 4 5 6 7 8 9 10 11 12 13 14 15 16 17 18 19 20 21 22 23 24 25 26 27 28 29 30 31 32 33 34 35 36 37 38 39 40 41 42 43 44 45 46 47 48 49 50
000
NZUS43 KILX 130910
HWRILX

Area Weather Roundup
National Weather Service Lincoln IL
300 AM CST WED DEC 13 2017

NOTE:  "FAIR" indicates few or no clouds below 12,000 feet, with
       no sigificant weather and/or obstructions to visibility.


CITY           SKY/WX    TMP DP  RH WIND       PRES   REMARKS
Bloomington    CLOUDY    25   8  48 SW14      29.85F WCI  13
Champaign      CLOUDY    23  10  57 S10       29.88F WCI  12
Danville       CLOUDY    22  10  61 S7        29.88F WCI  13
Decatur        CLOUDY    23   9  55 SW12      29.89F WCI  12
Effingham      CLOUDY    23  11  61 S5        29.96F WCI  16
Flora          CLOUDY    23  13  64 S6        29.97F WCI  16
Galesburg      CLEAR     25  17  69 S8        29.78F WCI  17
Jacksonville   CLOUDY    28  10  47 S9        29.86F WCI  19
Lacon          CLOUDY    26  11  51 S7        29.81F WCI  19
Lawrenceville  CLOUDY    20  11  68 SW6       29.99F WCI  12
Litchfield     CLOUDY    24  11  59 S9        29.90F WCI  14
$$


CITY           SKY/WX    TMP DP  RH WIND       PRES   REMARKS
Lincoln        CLOUDY    24  11  59 S5        29.86F WCI  18
Macomb         CLOUDY    28  16  59 S10       29.81F WCI  19
Mattoon        CLOUDY    22  10  60 S10       29.90F WCI  11
Mt Carmel AP   CLOUDY    21  11  66 S6        29.99F WCI  13
Olney-Noble AP CLOUDY    22   8  54 S3        29.98F
Paris AP       CLOUDY    23  10  59 S7        29.92F WCI  14
Peoria         CLOUDY    25   8  48 S12       29.82F WCI  14
Pontiac        CLOUDY    27   9  46 S10       29.85F WCI  17
Rantoul        CLOUDY    25  11  54 S5        29.88F WCI  20
Robinson       CLOUDY    19  11  69 S8        29.98F WCI   9
Springfield    CLOUDY    28  10  46 S10       29.88F WCI  19
Taylorville    CLOUDY    23   9  53 S8        29.90F WCI  14
$$

...REGIONAL REPORTS...


CITY           SKY/WX    TMP DP  RH WIND       PRES   REMARKS
Chicago O`Hare CLOUDY    22  11  62 S9        29.80F WCI  12
Kankakee       CLOUDY    24  10  56 S6        29.87F WCI  16
Moline         CLOUDY    30  16  56 S8        29.73F WCI  22
Mount Sterling PTCLDY    28  15  57 S9        29.82F WCI  19
Mount Vernon   CLOUDY    21  13  71 SW5       29.98F WCI  15
Pittsfield     PTCLDY    29  13  52 S7        29.85F WCI  22
Quincy         CLEAR     26  16  65 S12       29.81F WCI  16
Rockford       CLOUDY    24  14  65 S10       29.76F WCI  14
$$


CITY           SKY/WX    TMP DP  RH WIND       PRES   REMARKS
Burlington     CLEAR     28  18  66 S14       29.74F WCI  17
Cedar Rapids   CLOUDY    28  20  71 S15       29.62F WCI  16
Des Moines     CLOUDY    34  24  67 S14       29.60F WCI  25
Kirksville     CLOUDY    30  25  81 SW15G23   29.76F WCI  19
Ottumwa        CLEAR     31  22  69 S15       29.66F WCI  20
St Louis       NOT AVBL
$$


CITY           SKY/WX    TMP DP  RH WIND       PRES   REMARKS
Terre Haute    CLOUDY    23   8  52 SW5       29.94F WCI  17
Evansville     CLOUDY    21  14  74 SW5       30.02F WCI  15
Indianapolis   CLOUDY    20   8  60 S3        29.95R
Lafayette      CLOUDY    20  11  68 S5        29.91F WCI  13
Madison        CLOUDY    23  11  60 S12       29.68F WCI  12
Milwaukee      CLOUDY    21   9  59 S7        29.78F WCI  12
$$





USA.gov is the U.S. government's official web portal to all federal, state and local government web resources and services.